652  
ASUS45 KREV 241910  
RWRNV  
NEVADA REGIONAL WEATHER ROUNDUP  
NATIONAL WEATHER SERVICE RENO NV  
1100 AM PST WED FEB 24 2021  
 
NOTE: "FAIR" INDICATES FEW OR NO CLOUDS BELOW 12,000 FEET WITH NO  
SIGNIFICANT WEATHER AND/OR S TO VISIBILITY
.  
 
NVZ001-003-004-242000-  
WESTERN NEVADA  
 
CITY SKY/WX TMP DP RH WIND PRES REMARKS
 
RENO MOSUNNY 42 12 29 NE15G21 30.29R  
CARSON CITY FAIR 43 7 22 N16 30.26S  
MINDEN FAIR 45 10 24 N21 30.24R  
SLIDE MTN N/A 28 -4 24 N10 N/A  
FALLON MOSUNNY 42 17 36 N18G29 30.30R  
LOVELOCK SUNNY 39 11 31 NW20G26 30.33R  
HAWTHORNE SUNNY 45 10 24 N28G35 30.24R  

 
 
NVZ002-CAZ072-073-242000-  
NORTHERN AND CENTRAL SIERRA  
 
CITY SKY/WX TMP DP RH WIND PRES REMARKS
 
S. LAKE TAHOE SUNNY 42 12 29 NE9 30.21R  
TRUCKEE SUNNY 32 14 47 CALM 30.25  
SQUAW VLY 8000 N/A 32 -15 12 NE8 N/A  
BLUE CANYON SUNNY 49 -10 8 N8 30.22R  
MAMMOTH LAKES FAIR 43 1 17 CALM 30.18F  
BRIDGEPORT N/A 28 16 59 NW3 N/A  

 
 
NVZ030-031-036-242000-  
NORTHERN NEVADA  
 
CITY SKY/WX TMP DP RH WIND PRES REMARKS
 
ELKO PTSUNNY 33 6 32 N9 30.23R  
WINNEMUCCA MOSUNNY 35 14 42 N18G24 30.32R  
BATTLE MOUNTAI CLOUDY 34 16 47 N16 30.30R  
WENDOVER PTSUNNY 40 10 29 NW13G22 30.20R  

 
 
NVZ035-037-242000-  
CENTRAL NEVADA  
 
CITY SKY/WX TMP DP RH WIND PRES REMARKS
 
ELY MOSUNNY 38 14 37 MISG 30.09S  
EUREKA N/A 30 16 56 N16G26 30.18R  

 
 
NVZ013-014-242000-  
SOUTH CENTRAL NEVADA  
 
CITY SKY/WX TMP DP RH WIND PRES REMARKS
 
TONOPAH SUNNY 47 3 16 NW28G38 30.10F  

 
 
NVZ017-020-022-242000-  
SOUTHERN NEVADA  
 
CITY SKY/WX TMP DP RH WIND PRES REMARKS
 
LAS VEGAS SUNNY 64 8 11 CALM 30.04F  
N. LAS VEGAS SUNNY 67 9 10 W5 29.99F  
NELLIS AFB SUNNY 64 12 13 CALM 30.03F  
HENDERSON SUNNY 64 11 12 CALM 30.06F  
MERCURY SUNNY 62 5 10 S9 30.06F  

 
 
 
CLICK HERE TO GO TO PREVIOUS BULLETINS.

The Nexlab NV Page Main Text Page